Location: Izdebno
(52.6670°N, 16.2170°E)
Time: 15:18:34
(UTC+01:00)

Vanguard 2 - Pass Details

Date: 08 February 2023
Orbit: 553 x 2927 km, 32.9° (Epoch: 24 March)

Event Time Altitude Azimuth Distance (km) Brightness Sun altitude
Rises 21:08:06 0° 230° (SW) 4,951 11.9 -38.1°
Reaches altitude 10° 21:11:28 10° 220° (SW) 4,283 11.4 -38.5°
Enters shadow 21:17:01 26° 195° (SSW) 3,620 10.7 -39.2°
Maximum altitude 21:21:46 32° 165° (SSE) 3,625 - -39.8°
Drops below altitude 10° 21:35:19 10° 112° (ESE) 5,687 - -41.5°
Sets 21:40:40 0° 104° (ESE) 6,780 - -42.2°
